Location: Moscow
(55.7500°N, 37.5830°E)
Time: 08:21:37
(UTC+03:00)

N. Korean satellite - Pass Details

Date: 31 October 2021
Orbit: 446 x 495 km, 97.3° (Epoch: 04 December)

Event Time Altitude Azimuth Distance (km) Brightness Sun altitude
Rises 06:45:24 0° 8° (N) 2,598 10.2 -7.2°
Reaches altitude 10° 06:47:37 10° 360° (N) 1,705 9.2 -6.9°
Maximum altitude 06:50:58 35° 294° (WNW) 818 7.2 -6.5°
Drops below altitude 10° 06:54:16 10° 228° (SW) 1,674 9.0 -6.0°
Sets 06:56:25 0° 219° (SW) 2,541 10.0 -5.7°
